Regional Weather Roundup
Issued by NWS

Home | Current Version | Previous Version | Graphics & Text | Print | Product List | Glossary On
Versions: 1 2 3 4 5 6 7 8 9 10 11 12 13 14 15 16 17 18 19 20 21 22 23 24 25 26 27 28 29 30 31 32 33 34 35 36 37 38 39 40 41 42 43 44 45 46 47 48 49 50
000
ASUS45 KCYS 292210
RWRWY

WYOMING REGIONAL WEATHER ROUNDUP
NATIONAL WEATHER SERVICE CHEYENNE WY
400 PM MDT SUN MAY 29 2016

NOTE:  "FAIR" INDICATES FEW OR NO CLOUDS BELOW 12,000 FEET
WITH NO SIGNIFICANT WEATHER AND/OR OBSTRUCTIONS TO VISIBILITY.

WYZ001-292300-
YELLOWSTONE NATIONAL PARK

CITY           SKY/WX    TMP DP  RH WIND       PRES   REMARKS
LK YELLOWSTONE   N/A     60  23  24 W12G25    30.19F
W YELLOWSTONE  NOT AVBL

$$
WYZ002>013-054>058-071-098>099-292300-
NORTHERN WYOMING

CITY           SKY/WX    TMP DP  RH WIND       PRES   REMARKS
JACKSON        PTSUNNY   61  36  39 CALM      30.13F
CODY           PTSUNNY   72  37  28 SE7G18    30.00F
GREYBULL       FAIR      76  28  17 SE5       29.96F
WORLAND        FAIR      77  31  18 VRB5      29.97F
SHERIDAN       FAIR      76  42  29 E6G18     29.98F
BUFFALO        FAIR      72  43  35 SE7       30.03F
GILLETTE       FAIR      74  39  28 CALM      30.02F
HULETT         FAIR      73  43  33 S6        30.04F
NEWCASTLE      FAIR      77  32  19 S6G18     30.03F

$$
WYZ014>020-022>026-101>103-292300-
CENTRAL WYOMING

CITY           SKY/WX    TMP DP  RH WIND       PRES   REMARKS
BIG PINEY      FAIR      67  34  29 N8        30.15F
PINEDALE       FAIR      59  36  41 NE5       30.18F
DUBOIS         MOCLDY    63  28  27 W16G30    30.12F
LANDER         FAIR      74  36  25 MISG      30.03F
RIVERTON       FAIR      72  28  19 VRB5      30.05F
CASPER         FAIR      73  30  20 W9        30.05F
DOUGLAS          N/A    N/A N/A N/A MISG      30.05F

$$
WYZ021-027>030-104>119-292300-
SOUTHERN WYOMING

CITY           SKY/WX    TMP DP  RH WIND       PRES   REMARKS
EVANSTON       FAIR      65  29  25 W10G22    30.16F
KEMMERER         N/A     64  32  29 SW12      30.18F
FORT BRIDGER   FAIR      59  48  67 S17G24    30.22F
ROCK SPRINGS   FAIR      67  29  24 W14       30.15F
DIXON          FAIR      66  35  32 NW18      30.18F
RAWLINS        FAIR      67  30  25 W14       30.15F
SARATOGA       MOCLDY    66  34  30 W16G24    30.17F
LARAMIE        FAIR      64  35  34 E13       30.17F
CHEYENNE       PTSUNNY   63  37  38 NW21      30.14R
TORRINGTON     FAIR      78  42  27 S15       30.03S
PINE BLUFFS    MOCLDY    73  34  23 N7        30.08F

$$



USA.gov is the U.S. government's official web portal to all federal, state and local government web resources and services.